Home   Weather   Kagoshima   Past weeks
Flag for Japan

Past Weather in Kagoshima, Japan — Yesterday and Last 2 Weeks

Now
69 °F

Mild.


Feels Like: 69 °F
Forecast: 77 / 67 °F
Wind: 7 mph from Southeast

Location: Kagoshima

Current Time: Apr 23, 2019 at 11:10:56 pm

Latest Report: Apr 23, 2019 at 10:00 pm


Visibility: N/A

Pressure: 29.90 "Hg

Humidity: 78%

Dew Point: 62 °F

Location of KagoshimaLocation

Past Weather in Kagoshima — Graph

°F

Kagoshima Temperature Yesterday

Maximum temperature yesterday: 79 °F (at 3:00 pm)
Minimum temperature yesterday: 63 °F (at 3:00 am)
Average temperature yesterday: 71 °F

High & Low Weather Summary for the Past Weeks

 TemperatureHumidityPressure
High81 °F (Apr 21, 4:00 pm)99% (Apr 10, 4:00 am)30.16 "Hg (Apr 10, 4:00 am)
Low51 °F (Apr 13, 4:00 am)22% (Apr 15, 3:00 pm)29.59 "Hg (Apr 10, 5:00 am)
Average65 °F69%29.95 "Hg
* Reported Apr 8 8:00 pm — Apr 23 8:00 pm, Kagoshima. Weather by CustomWeather, © 2019

Note: Actual official high and low records may vary slightly from our data, if they occured in-between our weather recording intervals... More about our weather records

Advertising

Kagoshima Weather History for the Previous 24 Hours

Scroll right to see more
 ConditionsComfort  
Time TempWeatherWind HumidityBarometerVisibility
8:00 pm
Tue, Apr 23
70 °FMild.12 mph77%29.90 "HgN/A
7:00 pm69 °FMild.12 mph80%29.88 "HgN/A
6:00 pm69 °FLight rain. Overcast.9 mph80%29.87 "Hg9 mi
5:00 pm68 °FMild.7 mph79%29.91 "HgN/A
4:00 pm70 °FMild.8 mph77%29.93 "HgN/A
3:00 pm72 °FOvercast.15 mph68%29.92 "Hg12 mi
2:00 pm72 °FMild.14 mph72%29.93 "HgN/A
1:00 pm72 °FMild.16 mph73%29.95 "HgN/A
12:00 pm72 °FLight rain. Overcast.14 mph73%29.98 "Hg12 mi
11:00 am73 °FMild.10 mph72%29.98 "HgN/A
10:00 am71 °FMild.2 mph75%29.98 "HgN/A
9:00 am70 °FOvercast.3 mph83%29.98 "Hg6 mi
8:00 am69 °FMild.2 mph82%29.98 "HgN/A
7:00 am68 °FMild.5 mph84%29.99 "HgN/A
6:00 am68 °FOvercast.6 mph84%29.98 "Hg9 mi
5:00 am68 °FMild.2 mph82%29.98 "HgN/A
4:00 am67 °FMild.5 mph82%29.97 "HgN/A
3:00 am67 °FOvercast.6 mph81%29.97 "Hg9 mi
2:00 am67 °FMild.6 mph77%29.97 "HgN/A
1:00 am68 °FMild.3 mph74%29.99 "HgN/A
12:00 am69 °FMild.3 mph71%30.00 "HgN/A
11:00 pm
Mon, Apr 22
71 °FMild.5 mph77%30.01 "HgN/A
Weather by CustomWeather, © 2019

See weather overview